Simultaneous Nadir Overpasses (SNOs) Predictions

Prediction of SNOs between METOP-A and NOAA-19 Satellite Orbit:

Table of predicted SNOs for the next 14.0 days since TLE Epoch: 5/25/2018
Index Date (METOP-A) Time (METOP-A) Lat,Lon (METOP-A) SZA (METOP-A ) Date (NOAA-19) Time (NOAA-19) Lat,Lon (NOAA-19) SZA (NOAA-19 ) Distance(km) Time Diff (sec)
1 05/31/2018 04:33:08 -78.77, -58.40 123.00 05/31/2018 04:32:01 -78.80, -61.69 123.08 71.11 67
2 05/31/2018 05:23:53 78.54, 107.59 56.73 05/31/2018 05:22:48 78.52, 107.51 56.70 2.90 65
3 05/31/2018 06:14:35 -78.52, -85.25 123.31 05/31/2018 06:13:53 -78.52, -85.21 123.31 0.92 42
4 05/31/2018 07:05:15 78.52, 82.13 56.70 05/31/2018 07:04:49 78.52, 82.04 56.69 1.97 26
5 05/31/2018 07:55:57 -78.49,-110.71 123.34 05/31/2018 07:55:54 -78.51,-110.67 123.33 1.89 3
6 05/31/2018 08:46:37 78.50, 56.67 56.66 05/31/2018 08:46:50 78.51, 56.58 56.67 2.22 13
7 05/31/2018 09:37:19 -78.47,-136.17 123.38 05/31/2018 09:37:55 -78.50,-136.13 123.34 3.41 36
8 05/31/2018 10:27:59 78.48, 31.21 56.63 05/31/2018 10:28:51 78.51, 31.12 56.66 3.40 52
9 05/31/2018 11:18:40 -78.49,-161.41 123.37 05/31/2018 11:19:55 -78.46,-161.35 123.38 3.57 75




NCC Satellite Simultaneous Nadir Overpasses (SNOs) Prediction Service
